This demonstration page uses our WeatherBlox Daily Observations layout. Learn more.

Left ArrowRight Arrow

Hourly Observations for August 2, 2017

Temp ( °F °C ) Dew Point ( °F °C ) Humidity (%) Winds ( mph kmh ) Pressure ( in mb ) Visibility ( mi km ) Precip ( " mm )
12:51 am 00:51 Clear 72 22.2 67 19.4 84 84 ESE 5 7 29.95 1014 10 16.0934 0 0
1:51 am 01:51 Mostly Cloudy 72 22.2 68 20 87 87 SSE 7 11 29.95 1014 10 16.0934 0 0.0254
2:51 am 02:51 Mostly Clear 73 22.8 67 19.4 81 81 ESE 8 13 29.95 1014 10 16.0934 0 0.0254
3:51 am 03:51 Clear 73 22.8 66 18.9 79 79 ESE 7 11 29.95 1014 10 16.0934 0 0
4:51 am 04:51 Mostly Cloudy 73 22.8 67 19.4 81 81 SE 9 15 29.98 1015 10 16.0934 0 0
5:51 am 05:51 Mostly Cloudy 73 22.8 67 19.4 81 81 SE 9 15 30 1016 10 16.0934 0 0
6:51 am 06:51 Mostly Cloudy 75 23.9 67 19.4 76 76 ESE 8 13 30.02 1017 10 16.0934 0 0
7:51 am 07:51 Partly Cloudy 79 26.1 66 18.9 65 65 E 10 17 30.02 1017 10 16.0934 0 0
8:51 am 08:51 Sunny 80 26.7 66 18.9 62 62 SE 10 17 30.02 1017 10 16.0934 0 0
9:51 am 09:51 Sunny 83 28.3 64 17.8 53 53 undefined N/A 30.02 1017 10 16.0934 0 0
10:51 am 10:51 Sunny 85 29.4 63 17.2 48 48 E 8 13 30 1016 10 16.0934 0 0
11:51 am 11:51 Sunny 87 30.6 61 16.1 42 42 VRB 6 9 29.97 1015 10 16.0934 0 0
12:51 pm 12:51 Sunny 90 32.2 59 15 35 35 ESE 13 20 29.93 1014 10 16.0934 0 0
1:51 pm 13:51 Mostly Sunny 90 32.2 60 15.6 37 37 SSE 13 20 29.9 1013 10 16.0934 0 0
2:51 pm 14:51 Mostly Sunny 92 33.3 60 15.6 34 34 S 9 15 29.87 1012 10 16.0934 0 0
3:51 pm 15:51 Sunny 86 30 63 17.2 46 46 WSW 9 15 29.86 1011 10 16.0934 0 0
4:51 pm 16:51 Sunny 88 31.1 62 16.7 42 42 WSW 6 9 29.85 1011 10 16.0934 0 0
5:51 pm 17:51 Partly Cloudy 89 31.7 60 15.6 38 38 Calm 29.85 1011 10 16.0934 0 0
6:51 pm 18:51 Mostly Cloudy with Nearby Thunderstorms 87 30.6 63 17.2 45 45 ESE 5 7 29.87 1012 10 16.0934 0 0
7:33 pm 19:33 Cloudy 81 27.2 60 15.6 49 49 E 10 17 29.85 1011 10 16.0934 0 0
7:51 pm 19:51 Partly Cloudy 81 27.2 59 15 47 47 E 7 11 29.9 1012 10 16.0934 0 0
8:51 pm 20:51 Clear 79 26.1 62 16.7 56 56 ENE 8 13 29.93 1013 10 16.0934 0 0
9:51 pm 21:51 Clear 79 26.1 65 18.3 62 62 undefined N/A 29.93 1014 10 16.0934 0 0
10:51 pm 22:51 Clear 81 27.2 61 16.1 51 51 E 9 15 29.92 1013 10 16.0934 0 0
11:51 pm 23:51 Clear 78 25.6 63 17.2 60 60 E 6 9 29.92 1013 10 16.0934 0 0

Powered by AerisWeather